NOAA 16 DEB, 41361

Orbit data source: Space-Track

NOAA 16 DEB, 41361 is space debris in SSO originally from a launch on Thu, 21 Sep 2000 UTC launched from the Air Force Western Test Range (AFWTR). Debris objects in space refer to the collection of defunct objects orbiting the Earth. Examples of debris include non-operational satellites, rocket bodies, and fragments generated from explosions, collisions, or faulty payload assembly.

Loading next visibility...
Identifier
41361, 2000-055JE
Orbit
SSO
Country
Flag of USUS
Related business
Manufacturer
Unknown
Mission
Spacecraft
Bus & Motor
Unknown
Mass
Unknown
Launch date (UTC)
2000-09-21 (26 years ago)
Launch vehicle
Unknown
Launch site
Air Force Western Test Range (AFWTR)
Object type
Payload
Rocket body
Debris
Shape & HBR
Unknown shape, 0.1 m
Radar Cross Section
Medium (>0.1 m² and <1 m²)

Expand to show TLE details & history
Last TLE update: 1 day ago

TLE from 1 day ago
0 NOAA 16 DEB
1 41361U 00055JE  26235.36589741  .00002253  00000-0  10395-2 0  9998
2 41361  98.7465 278.0822 0031751  63.7897 296.6539 14.21716906542088
Epoch: 2026-08-23T08:46Z
TLE epoch observation values (Epoch: 2026-08-23T08:46:53.536Z)
Latitude
0.00001°
Longitude
174.69614°
Altitude
812.272 km
Speed
7.452 km/s
True Right ascension
18h 32m 19s
True Declination
0° 00' 00"
Sunlit
Object was in full shadow at epoch
Visualization orbit readout
Latitude
Unknown
Longitude
Unknown
Altitude
Unknown
Speed
Unknown
Apparent Right ascension
Unknown
Apparent Declination
Unknown
Sunlit
N/A
Visualization observer readout
Local Sidereal Time
02:09:57
Azimuth
Unknown
Elevation
Unknown
Doppler factor
Unknown
Orbital elements
Apogee altitude
839.555 km
Perigee altitude
793.866 km
Semi-major axis
7,194.847 km
Eccentricity
0.00318
Inclination
98.7465°
RAAN
278.0822°
Arg. of periapsis
63.7897°
True anomaly
296.32815°
Mean anomaly
296.6539°
Eccentric anomaly
296.49108°
Mean motion
3.5564 °/min
Orbital period
101.23 mins
BSTAR
0.0010395
Loading maneuver chart data...
Computing Atmospheric mass density...
Loading historical data...
Loading historical data...
Loading historical data...
Loading historical data...
Loading historical data...
Loading historical data...
Loading historical data...

Documentation

Showing up to 5 results
|